Tracking 35275 objects as of 9-Sep-2026
HD Live streaming from Space Station
objects crossing your sky now

ZHIHUI TIANWANG-1 01B

Track ZHIHUI TIANWANG-1 01B now!


NORAD ID: 59706
Int'l Code: 2024-087B
Launch date: May 9, 2024
Source: People's Republic of China (PRC)
Launch site: Xichang Space Center, China (XSC)
Your satellite tracking list
Your tracking list is empty




NASA's NSSDC Master Catalog

Two Line Element Set (TLE):
1 59706U 24087B   26250.89655926 -.00000031  00000-0  00000-0 0  9998
2 59706  53.1271 167.1731 0027170 202.7096 157.1796  2.00561171 16610
Source of the keplerian elements: AFSPC